Time,TemperatureF,DewpointF,PressureIn,WindDirection,WindDirectionDegrees,WindSpeedMPH,WindSpeedGustMPH,Humidity,HourlyPrecipIn,Conditions,Clouds,dailyrainin,SoftwareType,DateUTC
2013-02-13 00:07:00,39.0,37.0,30.31,West,277,0.0,2.0,93,0.00,,,0.00,weatherlink.com 1.10,2013-02-13 08:07:00,
2013-02-13 00:22:00,38.4,36.0,30.30,NW,304,0.0,1.0,92,0.00,,,0.00,weatherlink.com 1.10,2013-02-13 08:22:00,
2013-02-13 00:37:00,38.3,37.0,30.30,NW,304,0.0,0.0,93,0.00,,,0.00,weatherlink.com 1.10,2013-02-13 08:37:00,
2013-02-13 00:52:00,37.8,36.0,30.30,NW,304,0.0,1.0,93,0.00,,,0.00,weatherlink.com 1.10,2013-02-13 08:52:00,
2013-02-13 01:07:00,37.5,36.0,30.30,NW,304,0.0,0.0,94,0.00,,,0.00,weatherlink.com 1.10,2013-02-13 09:07:00,
2013-02-13 01:22:00,37.8,36.0,30.30,NW,304,0.0,0.0,94,0.00,,,0.00,weatherlink.com 1.10,2013-02-13 09:22:00,
2013-02-13 01:37:00,37.2,35.0,30.30,NW,304,0.0,0.0,93,0.00,,,0.00,weatherlink.com 1.10,2013-02-13 09:37:00,
2013-02-13 01:52:00,37.2,36.0,30.30,NW,307,0.0,0.0,94,0.00,,,0.00,weatherlink.com 1.10,2013-02-13 09:52:00,
2013-02-13 02:07:00,37.0,36.0,30.30,NW,307,0.0,0.0,94,0.00,,,0.00,weatherlink.com 1.10,2013-02-13 10:07:00,
2013-02-13 02:22:00,37.0,36.0,30.30,NW,307,0.0,0.0,95,0.00,,,0.00,weatherlink.com 1.10,2013-02-13 10:22:00,
2013-02-13 02:37:00,37.4,36.0,30.29,NW,307,0.0,0.0,95,0.00,,,0.00,weatherlink.com 1.10,2013-02-13 10:37:00,
2013-02-13 02:52:00,36.4,35.0,30.29,NW,307,0.0,0.0,94,0.00,,,0.00,weatherlink.com 1.10,2013-02-13 10:52:00,
2013-02-13 03:07:00,36.0,35.0,30.29,NW,307,0.0,0.0,95,0.00,,,0.00,weatherlink.com 1.10,2013-02-13 11:07:00,
2013-02-13 03:22:00,36.5,35.0,30.29,NW,307,0.0,0.0,95,0.00,,,0.00,weatherlink.com 1.10,2013-02-13 11:22:00,
2013-02-13 03:37:00,36.4,35.0,30.29,NW,307,0.0,0.0,95,0.00,,,0.00,weatherlink.com 1.10,2013-02-13 11:37:00,
2013-02-13 03:52:00,36.1,35.0,30.28,NW,307,0.0,0.0,95,0.00,,,0.00,weatherlink.com 1.10,2013-02-13 11:52:00,
2013-02-13 04:07:00,35.0,34.0,30.28,NW,307,0.0,0.0,94,0.00,,,0.00,weatherlink.com 1.10,2013-02-13 12:07:00,
2013-02-13 04:22:00,34.9,34.0,30.29,NW,307,0.0,0.0,95,0.00,,,0.00,weatherlink.com 1.10,2013-02-13 12:22:00,
2013-02-13 04:37:00,35.9,35.0,30.29,NW,307,0.0,0.0,95,0.00,,,0.00,weatherlink.com 1.10,2013-02-13 12:37:00,
2013-02-13 04:52:00,36.5,36.0,30.29,NW,307,0.0,0.0,96,0.00,,,0.00,weatherlink.com 1.10,2013-02-13 12:52:00,
2013-02-13 05:07:00,35.6,34.0,30.29,NW,307,0.0,2.0,95,0.00,,,0.00,weatherlink.com 1.10,2013-02-13 13:07:00,
2013-02-13 05:22:00,34.4,33.0,30.29,NW,307,0.0,0.0,94,0.00,,,0.00,weatherlink.com 1.10,2013-02-13 13:22:00,
2013-02-13 05:37:00,34.2,33.0,30.29,NW,307,0.0,0.0,95,0.00,,,0.00,weatherlink.com 1.10,2013-02-13 13:37:00,
2013-02-13 05:52:00,34.4,33.0,30.29,NW,307,0.0,0.0,95,0.00,,,0.00,weatherlink.com 1.10,2013-02-13 13:52:00,
2013-02-13 06:07:00,34.4,33.0,30.29,NW,307,0.0,0.0,95,0.00,,,0.00,weatherlink.com 1.10,2013-02-13 14:07:00,
2013-02-13 06:22:00,34.5,34.0,30.29,NW,307,0.0,0.0,96,0.00,,,0.00,weatherlink.com 1.10,2013-02-13 14:22:00,
2013-02-13 06:37:00,34.3,33.0,30.30,NW,307,0.0,0.0,96,0.00,,,0.00,weatherlink.com 1.10,2013-02-13 14:37:00,
2013-02-13 06:52:00,33.7,33.0,30.30,NW,307,0.0,0.0,95,0.00,,,0.00,weatherlink.com 1.10,2013-02-13 14:52:00,
2013-02-13 07:07:00,33.5,32.0,30.30,NW,307,1.0,3.0,95,0.00,,,0.00,weatherlink.com 1.10,2013-02-13 15:07:00,
2013-02-13 07:22:00,33.9,33.0,30.30,NW,309,0.0,3.0,96,0.00,,,0.00,weatherlink.com 1.10,2013-02-13 15:22:00,
2013-02-13 07:37:00,33.2,32.0,30.31,WNW,296,0.0,2.0,95,0.00,,,0.00,weatherlink.com 1.10,2013-02-13 15:37:00,
2013-02-13 07:52:00,33.8,33.0,30.31,WNW,298,0.0,0.0,96,0.00,,,0.00,weatherlink.com 1.10,2013-02-13 15:52:00,
2013-02-13 08:07:00,36.1,35.0,30.31,WNW,298,0.0,0.0,96,0.00,,,0.00,weatherlink.com 1.10,2013-02-13 16:07:00,
2013-02-13 08:22:00,38.1,37.0,30.31,WNW,298,0.0,1.0,96,0.00,,,0.00,weatherlink.com 1.10,2013-02-13 16:22:00,
2013-02-13 08:37:00,39.7,39.0,30.31,WNW,298,0.0,0.0,96,0.00,,,0.00,weatherlink.com 1.10,2013-02-13 16:37:00,
2013-02-13 08:52:00,40.4,39.0,30.31,WNW,298,0.0,0.0,95,0.00,,,0.00,weatherlink.com 1.10,2013-02-13 16:52:00,
2013-02-13 09:08:00,42.6,41.0,30.32,ENE,70,0.0,5.0,95,0.00,,,0.00,weatherlink.com 1.10,2013-02-13 17:08:00,
2013-02-13 09:23:00,43.4,41.0,30.32,ENE,74,0.0,4.0,91,0.00,,,0.00,weatherlink.com 1.10,2013-02-13 17:23:00,
2013-02-13 09:38:00,45.6,43.0,30.32,East,95,0.0,4.0,89,0.00,,,0.00,weatherlink.com 1.10,2013-02-13 17:38:00,
2013-02-13 09:53:00,47.3,43.0,30.32,East,80,0.0,2.0,85,0.00,,,0.00,weatherlink.com 1.10,2013-02-13 17:53:00,
2013-02-13 10:08:00,49.7,44.0,30.31,SSW,210,0.0,2.0,82,0.00,,,0.00,weatherlink.com 1.10,2013-02-13 18:08:00,
2013-02-13 10:23:00,51.7,45.0,30.31,SW,234,2.0,4.0,77,0.00,,,0.00,weatherlink.com 1.10,2013-02-13 18:23:00,
2013-02-13 10:38:00,53.1,45.0,30.31,WSW,243,0.0,4.0,74,0.00,,,0.00,weatherlink.com 1.10,2013-02-13 18:38:00,
2013-02-13 10:53:00,54.6,45.0,30.30,WSW,246,0.0,2.0,71,0.00,,,0.00,weatherlink.com 1.10,2013-02-13 18:53:00,
2013-02-13 11:08:00,55.9,45.0,30.30,WSW,246,2.0,4.0,67,0.00,,,0.00,weatherlink.com 1.10,2013-02-13 19:08:00,
2013-02-13 11:23:00,57.5,47.0,30.29,SW,228,1.0,3.0,68,0.00,,,0.00,weatherlink.com 1.10,2013-02-13 19:23:00,
2013-02-13 11:38:00,58.8,47.0,30.28,South,178,0.0,3.0,65,0.00,,,0.00,weatherlink.com 1.10,2013-02-13 19:38:00,
2013-02-13 11:53:00,59.6,47.0,30.28,SSW,210,0.0,3.0,64,0.00,,,0.00,weatherlink.com 1.10,2013-02-13 19:53:00,
2013-02-13 12:08:00,60.7,47.0,30.27,SSW,213,0.0,4.0,61,0.00,,,0.00,weatherlink.com 1.10,2013-02-13 20:08:00,
2013-02-13 12:23:00,60.8,48.0,30.27,SW,234,1.0,4.0,62,0.00,,,0.00,weatherlink.com 1.10,2013-02-13 20:23:00,
2013-02-13 12:38:00,62.0,48.0,30.26,West,277,1.0,3.0,60,0.00,,,0.00,weatherlink.com 1.10,2013-02-13 20:38:00,
2013-02-13 12:54:00,63.1,48.0,30.25,WSW,238,1.0,4.0,58,0.00,,,0.00,weatherlink.com 1.10,2013-02-13 20:54:00,
2013-02-13 13:09:00,63.9,48.0,30.24,West,275,1.0,7.0,56,0.00,,,0.00,weatherlink.com 1.10,2013-02-13 21:09:00,
2013-02-13 13:24:00,64.5,50.0,30.23,SW,220,0.0,3.0,59,0.00,,,0.00,weatherlink.com 1.10,2013-02-13 21:24:00,
2013-02-13 13:39:00,66.1,50.0,30.22,SW,232,0.0,3.0,57,0.00,,,0.00,weatherlink.com 1.10,2013-02-13 21:39:00,
2013-02-13 13:54:00,66.1,47.0,30.21,SSW,201,2.0,5.0,51,0.00,,,0.00,weatherlink.com 1.10,2013-02-13 21:54:00,
2013-02-13 14:09:00,66.0,49.0,30.20,SSW,208,0.0,6.0,55,0.00,,,0.00,weatherlink.com 1.10,2013-02-13 22:09:00,
2013-02-13 14:24:00,66.0,49.0,30.19,SSW,207,0.0,5.0,54,0.00,,,0.00,weatherlink.com 1.10,2013-02-13 22:24:00,
2013-02-13 14:39:00,66.3,49.0,30.19,SSE,163,1.0,4.0,55,0.00,,,0.00,weatherlink.com 1.10,2013-02-13 22:39:00,
2013-02-13 14:54:00,65.9,49.0,30.19,SSE,161,0.0,2.0,55,0.00,,,0.00,weatherlink.com 1.10,2013-02-13 22:54:00,
2013-02-13 15:09:00,65.6,48.0,30.19,SSE,148,0.0,4.0,54,0.00,,,0.00,weatherlink.com 1.10,2013-02-13 23:09:00,
2013-02-13 15:24:00,65.0,49.0,30.18,SW,217,0.0,7.0,57,0.00,,,0.00,weatherlink.com 1.10,2013-02-13 23:24:00,
2013-02-13 15:39:00,64.2,48.0,30.18,South,171,1.0,6.0,56,0.00,,,0.00,weatherlink.com 1.10,2013-02-13 23:39:00,
2013-02-13 15:54:00,63.3,49.0,30.18,WSW,247,1.0,4.0,59,0.00,,,0.00,weatherlink.com 1.10,2013-02-13 23:54:00,
2013-02-13 16:09:00,62.5,49.0,30.18,SSW,210,0.0,3.0,62,0.00,,,0.00,weatherlink.com 1.10,2013-02-14 00:09:00,
2013-02-13 16:24:00,62.1,48.0,30.18,SW,230,0.0,4.0,61,0.00,,,0.00,weatherlink.com 1.10,2013-02-14 00:24:00,
2013-02-13 16:39:00,60.9,48.0,30.18,SSE,161,0.0,2.0,63,0.00,,,0.00,weatherlink.com 1.10,2013-02-14 00:39:00,
2013-02-13 17:09:00,57.6,47.0,30.17,SSW,202,0.0,1.0,68,0.00,,,0.00,weatherlink.com 1.10,2013-02-14 01:09:00,
2013-02-13 17:24:00,56.0,46.0,30.17,SSW,202,0.0,1.0,69,0.00,,,0.00,weatherlink.com 1.10,2013-02-14 01:24:00,
2013-02-13 17:39:00,54.4,45.0,30.17,SSW,202,0.0,1.0,71,0.00,,,0.00,weatherlink.com 1.10,2013-02-14 01:39:00,
2013-02-13 17:54:00,52.7,44.0,30.17,SSW,202,0.0,0.0,73,0.00,,,0.00,weatherlink.com 1.10,2013-02-14 01:54:00,
2013-02-13 18:09:00,51.5,44.0,30.18,SSW,203,0.0,1.0,75,0.00,,,0.00,weatherlink.com 1.10,2013-02-14 02:09:00,
2013-02-13 18:24:00,50.5,44.0,30.17,SSW,203,0.0,0.0,77,0.00,,,0.00,weatherlink.com 1.10,2013-02-14 02:24:00,
2013-02-13 18:39:00,49.5,43.0,30.18,SSW,203,0.0,0.0,79,0.00,,,0.00,weatherlink.com 1.10,2013-02-14 02:39:00,
2013-02-13 18:54:00,48.5,43.0,30.18,SSW,203,0.0,0.0,82,0.00,,,0.00,weatherlink.com 1.10,2013-02-14 02:54:00,
2013-02-13 19:09:00,47.6,43.0,30.18,SSW,203,0.0,0.0,83,0.00,,,0.00,weatherlink.com 1.10,2013-02-14 03:09:00,
2013-02-13 19:24:00,46.6,42.0,30.18,SSW,203,0.0,0.0,85,0.00,,,0.00,weatherlink.com 1.10,2013-02-14 03:24:00,
2013-02-13 19:39:00,46.1,43.0,30.18,SSW,203,0.0,0.0,88,0.00,,,0.00,weatherlink.com 1.10,2013-02-14 03:39:00,
2013-02-13 19:54:00,45.7,42.0,30.18,SSW,203,0.0,0.0,88,0.00,,,0.00,weatherlink.com 1.10,2013-02-14 03:54:00,
2013-02-13 20:09:00,45.3,42.0,30.18,SSW,203,0.0,0.0,89,0.00,,,0.00,weatherlink.com 1.10,2013-02-14 04:09:00,
2013-02-13 20:39:00,45.0,43.0,30.19,SSW,203,0.0,0.0,91,0.00,,,0.00,weatherlink.com 1.10,2013-02-14 04:39:00,
2013-02-13 21:09:00,44.6,42.0,30.19,SSW,203,0.0,0.0,91,0.00,,,0.00,weatherlink.com 1.10,2013-02-14 05:09:00,
2013-02-13 21:24:00,44.0,42.0,30.18,SSW,203,0.0,0.0,91,0.00,,,0.00,weatherlink.com 1.10,2013-02-14 05:24:00,
2013-02-13 21:39:00,43.7,41.0,30.19,West,273,0.0,2.0,91,0.00,,,0.00,weatherlink.com 1.10,2013-02-14 05:39:00,
2013-02-13 21:54:00,43.3,41.0,30.19,West,273,1.0,1.0,91,0.00,,,0.00,weatherlink.com 1.10,2013-02-14 05:54:00,
2013-02-13 22:09:00,42.8,41.0,30.19,West,273,0.0,0.0,92,0.00,,,0.00,weatherlink.com 1.10,2013-02-14 06:09:00,
2013-02-13 22:24:00,42.8,41.0,30.20,West,273,0.0,0.0,93,0.00,,,0.00,weatherlink.com 1.10,2013-02-14 06:24:00,
2013-02-13 22:39:00,42.9,41.0,30.20,West,274,0.0,0.0,94,0.00,,,0.00,weatherlink.com 1.10,2013-02-14 06:39:00,
2013-02-13 22:54:00,42.1,40.0,30.20,West,274,0.0,0.0,92,0.00,,,0.00,weatherlink.com 1.10,2013-02-14 06:54:00,
2013-02-13 23:09:00,41.4,40.0,30.20,West,273,0.0,0.0,93,0.00,,,0.00,weatherlink.com 1.10,2013-02-14 07:09:00,
2013-02-13 23:24:00,41.1,39.0,30.20,West,273,0.0,0.0,93,0.00,,,0.00,weatherlink.com 1.10,2013-02-14 07:24:00,
2013-02-13 23:40:00,40.8,39.0,30.20,West,273,0.0,0.0,94,0.00,,,0.00,weatherlink.com 1.10,2013-02-14 07:40:00,
2013-02-13 23:54:00,40.8,39.0,30.20,West,273,0.0,0.0,94,0.00,,,0.00,weatherlink.com 1.10,2013-02-14 07:54:00,